Location: Leeds
(37.2390°N, 113.3580°W)
Time: 00:08:35
(UTC-06:00)

ISS - All Passes

Search period start: 01 May 2016 00:00
Search period end: 11 May 2016 00:00
Orbit: 402 x 405 km, 51.6° (Epoch: 30 April)

Date Brightness Start Highest point End Pass type
(mag) Time Alt. Az. Time Alt. Az. Time Alt. Az.
01 May - 08:33:03 10° SW 08:36:17 78° SE 08:39:33 10° NE daylight
01 May - 10:11:02 10° WNW 10:13:05 15° NNW 10:15:09 10° NNE daylight
01 May - 15:02:41 10° NW 15:05:47 38° NE 15:08:51 10° ESE daylight
01 May - 16:39:41 10° W 16:42:02 18° SW 16:44:22 10° S daylight
02 May - 07:40:53 10° SSW 07:43:53 35° SE 07:46:54 10° ENE daylight
02 May - 09:17:42 10° W 09:20:25 23° NNW 09:23:07 10° NNE daylight
02 May - 14:10:30 10° NNW 14:13:10 22° NNE 14:15:49 10° E daylight
02 May - 15:46:39 10° WNW 15:49:42 37° SW 15:52:45 10° SSE daylight
03 May - 06:49:20 10° S 06:51:34 17° SE 06:53:48 10° E daylight
03 May - 08:24:41 10° WSW 08:27:47 40° NW 08:30:55 10° NE daylight
03 May - 13:18:28 10° NNW 13:20:27 15° NNE 13:22:26 10° ENE daylight
03 May - 14:54:01 10° NW 14:57:18 83° SW 15:00:33 10° SE daylight
04 May - 07:32:00 10° SW 07:35:16 82° NW 07:38:32 10° NE daylight
04 May - 09:10:23 10° NW 09:12:09 14° NNW 09:13:56 10° N daylight
04 May - 12:26:50 10° N 12:27:39 11° NNE 12:28:29 10° NNE daylight
04 May - 14:01:36 10° NW 14:04:47 47° NE 14:07:56 10° ESE daylight
04 May - 15:39:02 10° W 15:40:56 15° SW 15:42:49 10° SSW daylight
05 May - 06:39:40 10° SSW 06:42:49 45° SE 06:45:57 10° ENE daylight
05 May - 08:16:53 10° W 08:19:25 20° NNW 08:21:56 10° NNE daylight
05 May - 13:09:20 10° NNW 13:12:10 26° NNE 13:14:59 10° E daylight
05 May - 14:45:43 10° WNW 14:48:36 29° SW 14:51:29 10° SSE daylight
06 May - 05:47:51 10° S 05:50:25 22° SE 05:53:00 10° ENE visible
06 May - 07:23:45 10° W 07:26:45 33° NNW 07:29:45 10° NNE daylight
06 May - 12:17:13 10° NNW 12:19:27 17° NNE 12:21:41 10° ENE daylight
06 May - 13:52:57 10° NW 13:56:11 64° SW 13:59:24 10° SE daylight
07 May - 04:57:21 10° SE 04:58:07 11° SE 04:58:53 10° ESE visible
07 May - 06:30:55 10° WSW 06:34:09 64° NW 06:37:24 10° NE daylight
07 May - 08:09:42 10° NW 08:11:09 12° NNW 08:12:35 10° N daylight
07 May - 11:25:21 10° N 11:26:39 12° NNE 11:27:57 10° NE daylight
07 May - 13:00:26 10° NW 13:03:40 59° NE 13:06:53 10° ESE daylight
07 May - 14:38:34 10° WSW 14:39:44 12° SW 14:40:55 10° SSW daylight
08 May - 05:38:26 10° SW 05:41:38 59° SE 05:44:52 10° ENE visible
08 May - 07:16:01 10° WNW 07:18:20 18° NNW 07:20:39 10° NNE daylight
08 May - 12:08:06 10° NNW 12:11:04 31° NNE 12:14:01 10° E daylight
08 May - 13:44:44 10° WNW 13:47:25 23° SW 13:50:04 10° S daylight
09 May - 04:46:23 10° SSW 04:49:12 27° SE 04:52:02 10° ENE visible
09 May - 06:22:45 10° W 06:25:37 28° NNW 06:28:30 10° NNE daylight
09 May - 11:15:53 10° NNW 11:18:21 19° NNE 11:20:47 10° ENE daylight
09 May - 12:51:49 10° WNW 12:54:59 49° SW 12:58:09 10° SSE daylight
10 May - 03:55:09 10° SSE 03:56:50 13° SE 03:58:33 10° E visible
10 May - 05:29:47 10° WSW 05:32:58 51° NW 05:36:10 10° NE visible
10 May - 07:09:01 10° NW 07:10:03 11° NNW 07:11:04 10° N daylight
10 May - 10:23:53 10° N 10:25:32 13° NNE 10:27:12 10° NE daylight
10 May - 11:59:12 10° NW 12:02:28 75° NE 12:05:43 10° SE daylight
